Time,TemperatureF,DewpointF,PressureIn,WindDirection,WindDirectionDegrees,WindSpeedMPH,WindSpeedGustMPH,Humidity,HourlyPrecipIn,Conditions,Clouds,dailyrainin,SoftwareType,DateUTC
2013-02-11 00:10:00,49.5,48.0,29.70,NE,34,5.0,10.0,94,0.00,,,0.01,weatherlink.com 1.10,2013-02-11 05:10:00,
2013-02-11 00:25:00,49.8,48.0,29.69,South,170,7.0,11.0,93,0.00,,,0.00,weatherlink.com 1.10,2013-02-11 05:25:00,
2013-02-11 00:40:00,49.9,48.0,29.69,SSE,158,4.0,9.0,93,0.00,,,0.00,weatherlink.com 1.10,2013-02-11 05:40:00,
2013-02-11 00:55:00,50.1,48.0,29.68,ESE,114,2.0,11.0,93,0.00,,,0.00,weatherlink.com 1.10,2013-02-11 05:55:00,
2013-02-11 01:10:00,49.9,48.0,29.68,South,177,4.0,10.0,93,0.00,,,0.00,weatherlink.com 1.10,2013-02-11 06:10:00,
2013-02-11 01:25:00,49.9,48.0,29.68,SE,137,3.0,15.0,93,0.00,,,0.00,weatherlink.com 1.10,2013-02-11 06:25:00,
2013-02-11 01:40:00,50.0,48.0,29.68,East,94,4.0,13.0,93,0.00,,,0.00,weatherlink.com 1.10,2013-02-11 06:40:00,
2013-02-11 01:55:00,49.9,48.0,29.68,East,100,5.0,10.0,93,0.00,,,0.00,weatherlink.com 1.10,2013-02-11 06:55:00,
2013-02-11 02:11:00,50.0,48.0,29.68,East,100,9.0,9.0,93,0.00,,,0.00,weatherlink.com 1.10,2013-02-11 07:11:00,
2013-02-11 02:26:00,50.2,48.0,29.68,SSW,192,8.0,14.0,93,0.00,,,0.00,weatherlink.com 1.10,2013-02-11 07:26:00,
2013-02-11 02:41:00,49.9,48.0,29.68,East,85,4.0,14.0,92,0.00,,,0.00,weatherlink.com 1.10,2013-02-11 07:41:00,
2013-02-11 02:56:00,49.4,48.0,29.68,SW,225,3.0,11.0,93,0.00,,,0.00,weatherlink.com 1.10,2013-02-11 07:56:00,
2013-02-11 03:11:00,49.1,47.0,29.68,SE,134,2.0,9.0,93,0.00,,,0.00,weatherlink.com 1.10,2013-02-11 08:11:00,
2013-02-11 03:26:00,48.9,47.0,29.67,ESE,108,6.0,11.0,93,0.00,,,0.00,weatherlink.com 1.10,2013-02-11 08:26:00,
2013-02-11 03:41:00,48.6,46.0,29.67,SSE,150,2.0,8.0,92,0.00,,,0.00,weatherlink.com 1.10,2013-02-11 08:41:00,
2013-02-11 03:56:00,48.2,46.0,29.66,South,180,4.0,10.0,91,0.00,,,0.00,weatherlink.com 1.10,2013-02-11 08:56:00,
2013-02-11 04:11:00,47.9,45.0,29.67,SW,233,4.0,8.0,90,0.00,,,0.00,weatherlink.com 1.10,2013-02-11 09:11:00,
2013-02-11 04:26:00,48.4,44.0,29.66,SE,131,3.0,12.0,85,0.00,,,0.00,weatherlink.com 1.10,2013-02-11 09:26:00,
2013-02-11 04:41:00,48.8,42.0,29.67,SE,137,6.0,14.0,77,0.00,,,0.00,weatherlink.com 1.10,2013-02-11 09:41:00,
2013-02-11 04:56:00,48.8,42.0,29.68,SE,129,5.0,15.0,76,0.00,,,0.00,weatherlink.com 1.10,2013-02-11 09:56:00,
2013-02-11 05:11:00,48.5,41.0,29.68,NE,49,2.0,9.0,75,0.00,,,0.00,weatherlink.com 1.10,2013-02-11 10:11:00,
2013-02-11 05:26:00,48.3,39.0,29.68,SE,124,2.0,10.0,71,0.00,,,0.00,weatherlink.com 1.10,2013-02-11 10:26:00,
2013-02-11 05:41:00,47.7,37.0,29.70,West,277,9.0,18.0,66,0.00,,,0.00,weatherlink.com 1.10,2013-02-11 10:41:00,
2013-02-11 05:56:00,43.8,36.0,29.71,ESE,120,3.0,14.0,75,0.00,,,0.00,weatherlink.com 1.10,2013-02-11 10:56:00,
2013-02-11 06:11:00,42.3,35.0,29.72,SSW,208,8.0,16.0,74,0.00,,,0.00,weatherlink.com 1.10,2013-02-11 11:11:00,
2013-02-11 06:26:00,41.4,33.0,29.73,SSW,210,6.0,19.0,73,0.00,,,0.00,weatherlink.com 1.10,2013-02-11 11:26:00,
2013-02-11 06:41:00,40.9,33.0,29.74,NE,34,5.0,15.0,72,0.00,,,0.00,weatherlink.com 1.10,2013-02-11 11:41:00,
2013-02-11 06:56:00,40.3,32.0,29.74,WSW,253,7.0,17.0,73,0.00,,,0.00,weatherlink.com 1.10,2013-02-11 11:56:00,
2013-02-11 07:11:00,39.7,32.0,29.75,NW,313,3.0,15.0,74,0.00,,,0.00,weatherlink.com 1.10,2013-02-11 12:11:00,
2013-02-11 07:27:00,39.5,33.0,29.75,SW,236,4.0,11.0,76,0.00,,,0.00,weatherlink.com 1.10,2013-02-11 12:27:00,
2013-02-11 07:42:00,39.7,33.0,29.76,NNW,336,4.0,15.0,76,0.00,,,0.00,weatherlink.com 1.10,2013-02-11 12:42:00,
2013-02-11 07:57:00,39.7,32.0,29.76,WNW,283,9.0,19.0,75,0.00,,,0.00,weatherlink.com 1.10,2013-02-11 12:57:00,
2013-02-11 08:12:00,39.0,31.0,29.77,WNW,287,12.0,19.0,73,0.00,,,0.00,weatherlink.com 1.10,2013-02-11 13:12:00,
2013-02-11 08:27:00,38.5,31.0,29.79,East,98,2.0,17.0,74,0.00,,,0.00,weatherlink.com 1.10,2013-02-11 13:27:00,
2013-02-11 08:42:00,38.2,30.0,29.79,ENE,64,5.0,20.0,72,0.00,,,0.00,weatherlink.com 1.10,2013-02-11 13:42:00,
2013-02-11 08:57:00,38.0,29.0,29.79,NNW,348,4.0,14.0,71,0.00,,,0.00,weatherlink.com 1.10,2013-02-11 13:57:00,
2013-02-11 09:12:00,37.9,29.0,29.80,NNW,333,5.0,13.0,71,0.00,,,0.00,weatherlink.com 1.10,2013-02-11 14:12:00,
2013-02-11 09:27:00,38.0,29.0,29.80,SW,219,5.0,13.0,71,0.00,,,0.00,weatherlink.com 1.10,2013-02-11 14:27:00,
2013-02-11 09:42:00,38.0,29.0,29.81,ENE,57,3.0,15.0,71,0.00,,,0.00,weatherlink.com 1.10,2013-02-11 14:42:00,
2013-02-11 09:57:00,38.0,29.0,29.81,ENE,64,3.0,14.0,71,0.00,,,0.00,weatherlink.com 1.10,2013-02-11 14:57:00,
2013-02-11 10:27:00,37.9,30.0,29.82,NW,314,7.0,16.0,72,0.00,,,0.00,weatherlink.com 1.10,2013-02-11 15:27:00,
2013-02-11 10:42:00,37.4,28.0,29.83,WSW,249,5.0,18.0,68,0.00,,,0.00,weatherlink.com 1.10,2013-02-11 15:42:00,
2013-02-11 10:57:00,37.7,28.0,29.84,NW,304,4.0,22.0,68,0.00,,,0.00,weatherlink.com 1.10,2013-02-11 15:57:00,
2013-02-11 11:12:00,37.3,28.0,29.86,SSW,207,2.0,15.0,70,0.00,,,0.00,weatherlink.com 1.10,2013-02-11 16:12:00,
2013-02-11 11:27:00,36.8,27.0,29.86,NNE,13,2.0,18.0,69,0.00,,,0.00,weatherlink.com 1.10,2013-02-11 16:27:00,
2013-02-11 11:42:00,36.4,27.0,29.86,East,83,7.0,16.0,69,0.00,,,0.00,weatherlink.com 1.10,2013-02-11 16:42:00,
2013-02-11 11:57:00,36.1,27.0,29.87,NW,313,4.0,19.0,70,0.00,,,0.00,weatherlink.com 1.10,2013-02-11 16:57:00,
2013-02-11 12:12:00,36.2,28.0,29.87,WSW,246,2.0,17.0,71,0.00,,,0.00,weatherlink.com 1.10,2013-02-11 17:12:00,
2013-02-11 12:42:00,36.5,28.0,29.87,WNW,295,2.0,16.0,72,0.00,,,0.00,weatherlink.com 1.10,2013-02-11 17:42:00,
2013-02-11 12:57:00,36.5,28.0,29.86,East,87,6.0,16.0,72,0.00,,,0.00,weatherlink.com 1.10,2013-02-11 17:57:00,
2013-02-11 13:12:00,36.4,29.0,29.87,South,181,4.0,17.0,73,0.00,,,0.00,weatherlink.com 1.10,2013-02-11 18:12:00,
2013-02-11 13:27:00,35.9,29.0,29.88,NNE,20,10.0,15.0,75,0.00,,,0.00,weatherlink.com 1.10,2013-02-11 18:27:00,
2013-02-11 13:42:00,36.7,28.0,29.88,NNE,15,8.0,20.0,70,0.00,,,0.00,weatherlink.com 1.10,2013-02-11 18:42:00,
2013-02-11 13:57:00,37.0,28.0,29.87,South,169,4.0,17.0,70,0.00,,,0.00,weatherlink.com 1.10,2013-02-11 18:57:00,
2013-02-11 14:12:00,36.9,28.0,29.88,West,266,8.0,16.0,71,0.00,,,0.00,weatherlink.com 1.10,2013-02-11 19:12:00,
2013-02-11 14:27:00,36.5,28.0,29.89,WNW,298,9.0,16.0,71,0.00,,,0.00,weatherlink.com 1.10,2013-02-11 19:27:00,
2013-02-11 14:42:00,36.7,28.0,29.89,ESE,108,4.0,13.0,72,0.00,,,0.00,weatherlink.com 1.10,2013-02-11 19:42:00,
2013-02-11 14:58:00,37.5,28.0,29.89,SW,231,5.0,15.0,69,0.00,,,0.00,weatherlink.com 1.10,2013-02-11 19:58:00,
2013-02-11 15:13:00,37.2,27.0,29.90,WNW,290,14.0,17.0,68,0.00,,,0.00,weatherlink.com 1.10,2013-02-11 20:13:00,
2013-02-11 15:28:00,36.9,28.0,29.91,WSW,245,2.0,14.0,69,0.00,,,0.00,weatherlink.com 1.10,2013-02-11 20:28:00,
2013-02-11 15:43:00,36.5,28.0,29.92,North,6,5.0,15.0,70,0.00,,,0.00,weatherlink.com 1.10,2013-02-11 20:43:00,
2013-02-11 15:58:00,36.5,27.0,29.92,SW,231,6.0,18.0,69,0.00,,,0.00,weatherlink.com 1.10,2013-02-11 20:58:00,
2013-02-11 16:13:00,36.5,27.0,29.92,SW,230,6.0,16.0,69,0.00,,,0.00,weatherlink.com 1.10,2013-02-11 21:13:00,
2013-02-11 16:28:00,36.6,28.0,29.93,ENE,64,3.0,15.0,71,0.00,,,0.00,weatherlink.com 1.10,2013-02-11 21:28:00,
2013-02-11 16:43:00,36.7,28.0,29.93,West,259,5.0,14.0,70,0.00,,,0.00,weatherlink.com 1.10,2013-02-11 21:43:00,
2013-02-11 16:58:00,36.6,28.0,29.93,SW,214,7.0,17.0,70,0.00,,,0.00,weatherlink.com 1.10,2013-02-11 21:58:00,
2013-02-11 17:13:00,36.6,28.0,29.93,NW,326,3.0,14.0,71,0.00,,,0.00,weatherlink.com 1.10,2013-02-11 22:13:00,
2013-02-11 17:28:00,36.6,28.0,29.94,West,280,8.0,13.0,72,0.00,,,0.00,weatherlink.com 1.10,2013-02-11 22:28:00,
2013-02-11 17:43:00,36.5,28.0,29.94,WSW,252,3.0,12.0,72,0.00,,,0.00,weatherlink.com 1.10,2013-02-11 22:43:00,
2013-02-11 17:58:00,36.5,29.0,29.94,East,91,3.0,12.0,73,0.00,,,0.00,weatherlink.com 1.10,2013-02-11 22:58:00,
2013-02-11 18:13:00,36.6,29.0,29.94,WNW,283,9.0,11.0,74,0.00,,,0.00,weatherlink.com 1.10,2013-02-11 23:13:00,
2013-02-11 18:28:00,36.7,29.0,29.95,NNW,330,9.0,10.0,75,0.00,,,0.00,weatherlink.com 1.10,2013-02-11 23:28:00,
2013-02-11 18:43:00,36.9,30.0,29.95,SW,224,2.0,11.0,76,0.00,,,0.00,weatherlink.com 1.10,2013-02-11 23:43:00,
2013-02-11 18:58:00,37.0,30.0,29.96,ENE,75,4.0,11.0,76,0.00,,,0.00,weatherlink.com 1.10,2013-02-11 23:58:00,
2013-02-11 19:13:00,37.0,29.0,29.96,NNW,340,4.0,14.0,74,0.00,,,0.00,weatherlink.com 1.10,2013-02-12 00:13:00,
2013-02-11 19:28:00,36.9,29.0,29.96,WNW,287,3.0,12.0,74,0.00,,,0.00,weatherlink.com 1.10,2013-02-12 00:28:00,
2013-02-11 19:43:00,36.5,29.0,29.96,WNW,301,5.0,12.0,75,0.00,,,0.00,weatherlink.com 1.10,2013-02-12 00:43:00,
2013-02-11 19:58:00,36.2,29.0,29.98,ESE,103,2.0,10.0,76,0.00,,,0.00,weatherlink.com 1.10,2013-02-12 00:58:00,
2013-02-11 20:13:00,36.0,29.0,29.98,West,274,5.0,9.0,77,0.00,,,0.00,weatherlink.com 1.10,2013-02-12 01:13:00,
2013-02-11 20:28:00,35.8,30.0,29.98,NNW,338,2.0,10.0,78,0.00,,,0.00,weatherlink.com 1.10,2013-02-12 01:28:00,
2013-02-11 20:43:00,35.5,30.0,29.99,ENE,60,3.0,5.0,79,0.00,,,0.00,weatherlink.com 1.10,2013-02-12 01:43:00,
2013-02-11 20:58:00,34.7,29.0,29.99,NNW,345,2.0,10.0,79,0.00,,,0.00,weatherlink.com 1.10,2013-02-12 01:58:00,
2013-02-11 21:13:00,33.8,28.0,30.00,NW,318,4.0,7.0,79,0.00,,,0.00,weatherlink.com 1.10,2013-02-12 02:13:00,
2013-02-11 21:28:00,33.3,28.0,30.00,NNE,23,3.0,7.0,80,0.00,,,0.00,weatherlink.com 1.10,2013-02-12 02:28:00,
2013-02-11 21:43:00,32.9,27.0,30.00,North,352,2.0,6.0,80,0.00,,,0.00,weatherlink.com 1.10,2013-02-12 02:43:00,
2013-02-11 21:58:00,32.1,27.0,29.99,West,278,3.0,6.0,82,0.00,,,0.00,weatherlink.com 1.10,2013-02-12 02:58:00,
2013-02-11 22:13:00,31.6,27.0,30.00,ENE,59,2.0,7.0,83,0.00,,,0.00,weatherlink.com 1.10,2013-02-12 03:13:00,
2013-02-11 22:28:00,31.4,27.0,30.00,ENE,74,1.0,6.0,84,0.00,,,0.00,weatherlink.com 1.10,2013-02-12 03:28:00,
2013-02-11 22:43:00,31.3,27.0,30.00,WNW,293,2.0,6.0,85,0.00,,,0.00,weatherlink.com 1.10,2013-02-12 03:43:00,
2013-02-11 22:58:00,31.3,27.0,30.01,East,98,1.0,7.0,85,0.00,,,0.00,weatherlink.com 1.10,2013-02-12 03:58:00,
2013-02-11 23:13:00,31.2,27.0,30.01,NE,40,3.0,6.0,85,0.00,,,0.00,weatherlink.com 1.10,2013-02-12 04:13:00,
2013-02-11 23:28:00,30.9,27.0,30.01,NNE,15,1.0,4.0,85,0.00,,,0.00,weatherlink.com 1.10,2013-02-12 04:28:00,
2013-02-11 23:44:00,30.7,27.0,30.02,West,262,4.0,7.0,86,0.00,,,0.00,weatherlink.com 1.10,2013-02-12 04:44:00,
2013-02-11 23:59:00,30.8,27.0,30.02,WNW,295,4.0,7.0,86,0.00,,,0.00,weatherlink.com 1.10,2013-02-12 04:59:00,